Tracking 19920 objects as of 15-Oct-2019
HD Live streaming from Space Station
objects crossing your sky now

THORAD DELTA 1 DEB

Track THORAD DELTA 1 DEB now!
10-day predictions


NORAD ID: 42619
Int'l Code: 1974-089GL
Perigee: 981.0 km
Apogee: 1,270.8 km
Inclination: 102.1 °
Period: 107.7 minutes
Semi major axis: 7496 km
RCS: Unknown
Launch date: November 15, 1974
Source: United States (US)
Launch site: AIR FORCE WESTERN TEST RANGE (AFWTR)

Note: This is SATELLITE DEBRIS
aabbcc
Your satellite tracking list
Your tracking list is empty




NASA's NSSDC Master Catalog

Two Line Element Set (TLE):
1 42619U 74089GL  19287.88633282  .00000415  00000-0  81196-3 0  9995
2 42619 102.0705 152.5549 0193275  61.6295 356.2245 13.37448893 59052
Source of the keplerian elements: AFSPC